Regional Weather Roundup
Issued by NWS Nashville, TN

Home | Current Version | Previous Version | Text Only | Print | Product List | Glossary On
Versions: 1 2 3 4 5 6 7 8 9 10 11 12 13 14 15 16 17 18 19 20 21 22 23 24 25 26 27 28 29 30 31 32 33 34 35 36 37 38 39 40 41 42 43 44 45 46 47 48 49 50
000
ASUS44 KOHX 251305
RWROHX
MIDDLE TENNESSEE HOURLY WEATHER ROUNDUP
NATIONAL WEATHER SERVICE NASHVILLE TN
800 AM CDT SAT OCT 25 2014

NOTE: "FAIR" INDICATES FEW OR NO CLOUDS BELOW 12,000 FEET WITH
NO SIGNIFICANT WEATHER AND/OR OBSTRUCTIONS TO VISIBILITY.

* THESE REPORTS ARE NOT UNDER NWS QUALITY CONTROL AND MAY NOT
  REPORT WEATHER SUCH AS PRECIPITATION AND FOG.


TNZ005>011-023>034-057-059-062>066-078-080-251400
...NORTHERN MIDDLE TENNESSEE...

CITY           SKY/WX    TMP DP  RH WIND       PRES   REMARKS
CLARKSVILLE    MOCLDY    52  50  93 S3        30.07R FOG
CROSSVILLE     SUNNY     45  42  89 CALM      30.12R
NASHVILLE      MOSUNNY   47  46  97 CALM      30.10S
SMYRNA         SUNNY     45  45 100 CALM      30.11S
SPARTA         SUNNY     43  43 100 CALM      30.10S
$$
TNZ056-058-060-061-075>077-079-093>097-251400
...SOUTHERN MIDDLE TENNESSEE...

CITY           SKY/WX    TMP DP  RH WIND       PRES   REMARKS
COLUMBIA       CLEAR    N/A N/A N/A CALM      30.09R
FAYETTEVILLE   SUNNY     46  43  87 MISG      30.12R
MCMINNVILLE    SUNNY     43  43 100 CALM      30.11R
SHELBYVILLE    SUNNY     45  45 100 SE3       30.12R
TULLAHOMA      SUNNY     43  39  87 CALM      30.12R
WINCHESTER     SUNNY     41  41 100 CALM      30.13R
$$


...KEY TO REMARKS...
VSB - VISIBILITY IN MILES
WCI - WIND CHILL INDEX
HX  - HEAT INDEX




USA.gov is the U.S. government's official web portal to all federal, state and local government web resources and services.